Location: B�di�
(14.6834°N, 3.1047°W)
Time: 14:57:46
(UTC+00:00)

Cosmos 1821 Rocket - Pass Details

Date: 24 January 2020
Orbit: 944 x 1005 km, 82.9° (Epoch: 22 February)

Event Time Altitude Azimuth Distance (km) Brightness Sun altitude
Rises 19:25:06 0° 189° (S) 3,720 7.4 -18.8°
Reaches altitude 10° 19:27:38 10° 191° (SSW) 2,772 6.7 -19.4°
Maximum altitude 19:33:59 69° 274° (W) 1,068 4.3 -20.9°
Drops below altitude 10° 19:40:18 10° 357° (N) 2,761 6.2 -22.3°
Sets 19:42:50 0° 360° (N) 3,704 6.9 -22.9°
